Погода в Анапе

Погода в Анапе : погода сейчас, прогноз погоды и архив. Всё, что Вы хотите узнать о погоде в Анапе!

Поиск расширенной информации на нашем сайте:

Другие новости

Новости СМИ2

Главная страница сайта

Новости сайта

03.07.2017

Напоминаем, что на нашем специализированном сайте Метеоцентр.Азия вы можете получить высокодетализированные автоматические прогнозы погоды по пунктам России, СНГ и мира в авиационном формате (включающие направление и скорость ветра, видимость, явления погоды, количество и форму облачности, нижнюю и верхнюю границу облачности).


Погода в Анапе - сегодня

Время (UTC), дата Ветер
(°,м/с) 
Видим.   Явления Облачность Т
(°С)
Тd
(°С)
f(%) Тe
(°С)
Pmin
(гПа)
dP
(гПа)
Po
(мм)
O2
(г/м3)
Тmin Tmax R s Состояние
почвы
09 20.01.18 180 (Ю) 10-14{17}  10 км    10/3 600 м средняя 
[Sc|Ac und]
+9.2 +6.1 81 +7  1017.5  -0.4  760  295           
12 20.01.18 170 (Ю) 9-12{15}  10 км    10/8 600 м кучево-дожд., средняя 
[Cb cap|Ac und]
+9.3 +6.1 80 +7  1016.1  -1.4  759  295           
15 20.01.18 170 (Ю) 11-14{15}  10 км    10/8 600 м средняя 
[Sc|Ac und]
+9.1 +5.7 79 +6  1015.3  -0.7  758  295    +9.4       
18 20.01.18 170 (Ю) 10-14{15}  10 км    10/8 600 м средняя 
[Sc|Ac und]
+9.3 +6.9 85 +7  1014.1  -1.2  758  294           
21 20.01.18 180 (Ю) 10-12{15}  4000 м  дымка  10/9 300 м верхняя 
[St|Ci fib]
+9.5 +8.1 91 +7  1012.7  -1.4  757  293           
00 21.01.18 180 (Ю) 9-12{13}  10 км    10/3 600 м средняя 
[Sc|Ac und]
+9.4 +6.8 84 +7  1011.2  -1.5  755  293           
03 21.01.18 190 (Ю) 9-13{13}  10 км  слаб. ливневой дождь  10/10 300 м кучево-дожд. 
[Cb cap]
+8.7 +4.1 73 +6  1009.8  -1.4  754  294  +8.7    0.3     
06 21.01.18 170 (Ю) 11-16{16}  4000 м  слаб. ливневой дождь  10/10 300 м кучево-дожд. 
[Cb cap]
+9.3 +8.2 93 +6  1007.9  -1.9  753  292  +8.3         
09 21.01.18 270 (З) 7-19{25}  10 км  {ливн. осадки}  8/8 300 м кучево-дожд. 
[Cb cap]
+8.6 +5.6 81 +6  1009.8  754  294           
12 21.01.18 300 (СЗ) 3{19}  10 км  {ливн. осадки}  10/10 600 м 
[Sc]
+4.1 +2.2 87 +3  1014.8  4.9  758  301           
15 21.01.18 020 (С) 10 км    10/10 600 м 
[Sc]
+3.4 +1.1 85 +4  1017.6  2.8  760  302    +10.2     
18 21.01.18 050 (СВ) 10 км    3/3 600 м 
[Sc]
+2.3 +0.6 88 +1  1016  -1.7  759  303           
21 21.01.18 040 (СВ) 4000 м  в посл. час ливневой дождь  10/10 300 м кучево-дожд. 
[Cb cap]
+2 +0.9 92 -1  1014.5  -1.5  758  303           
00 22.01.18 060 (СВ) 6-10{11}  4000 м  слаб. ливневой дождь  10/10 300 м кучево-дожд. 
[Cb cap]
+2.1 +0.8 91 -1  1011.6  -2.9  756  302           
03 22.01.18 070 (В) 6-13{13}  10 км  {ливн. осадки}  10/10 600 м кучево-дожд. 
[Cb cap]
+3.9 +1.3 83 +1  1008.4  -3.1  753  299  +2       
06 22.01.18 060 (СВ) 7-11{13}  10 км  {ливн. осадки}  10/10 600 м кучево-дожд. 
[Cb cap]
+4.3 +1.9 84 +1  1006.5  -1.9  752  298           
09 22.01.18 060 (СВ) 7-12{12}  10 км    10/10 600 м 
[Sc]
+5.3 +2.3 81 +3  1004.9  -1.6  751  296           
12 22.01.18 060 (СВ) 5{12}  10 км    10/10 600 м кучево-дожд. 
[Cb cap]
+6.4 +2.8 78 +5  1003.2  -1.6  749  295           
15 22.01.18 060 (СВ) 10 км    5/5 600 м 
[Sc]
+7.2 +3.6 78 +6  1003.3  0.1  749  294    +7.2       
18 22.01.18 150 (ЮВ) 10 км    5/5 600 м 
[Sc]
+11.7 +5 63 +11  1002.9  -0.3  749  289           
21 22.01.18 170 (Ю) 7-11{13}  10 км    8/8 600 м 
[Sc]
+11.8 +5.5 65 +10  1002.3  -0.7  749  288           
00 23.01.18 160 (Ю) 6{12}  10 км    3/3 600 м 
[Sc]
+10.6 +7.3 80 +9  1002.9  0.6  749  289           
03 23.01.18 160 (Ю) 10 км    8/8 600 м 
[Sc]
+10.8 +6.6 75 +10  1003.1  0.2  749  289  +7         
06 23.01.18 340 (С) 4000 м  слаб. дождь  10/10 300 м 
[Frnb|Ns]
+5 +3.9 93 +4  1005.5  2.4  751  297  +5         
09 23.01.18 340 (С) 4-10  10 км  {дождь}  10/10 300 м 
[Sc]
+3.8 +2 88 +2  1007.8  2.3  753  299           
Время (UTC), дата Ветер
(°,м/с) 
Видим.   Явления Облачность Т
(°С)
Тd
(°С)
f(%) Тe
(°С)
Pmin
(гПа)
dP
(гПа)
Po
(мм)
O2
(г/м3)
Тmin Tmax R s Состояние
почвы

Для получения пояснительной информации подведите курсор к названию столбца.

ПОГОДА в Анапе - архив

Всё, что Вы хотите узнать о погоде в Анапе - удобно и подробно!

Выберите нужную дату (начиная с 1 января 2015* года) и нажмите кнопку "Найти".
Будут отображены архивные сводки погоды по пункту Анапа, начиная с указанной даты.


Отображать данные в формате CSV (для использования в таблицах Excel)


Внимание! Наш архив погоды предназначен исключительно для личного некоммерческого использования в познавательных целях. Если Вам необходимы официальные справки о состоянии погоды (для производственных, юридических, коммерческих и т.п. целей), обращайтесь в органы Росгидромета.

*Примечание: данная дата относится к архиву по метеостанциям СССР (Россия, СНГ, Балтия).
Архив по метеостанциям Зарубежной Европы и Азии (кроме Китая) хранится 10 дней, по другим регионам земного шара (Китай, Африка, Америка, Австралия, Океания) - 1 день.

Анапа - район местоположения метеостанции


Название, широта, долгота, высота метеостанции:
Анапа (обсерватория) 44.97°ш. 37.30°д. 23 м над ур. моря [Российская Федерация]

Дополнительная информация

В oтличие oт бoльшинства пoгoдных сайтoв мы публикуем пoдрoбную метеoинфoрмацию в детальнoм прoфессиoнальнoм фoрмате.

Характеристики температуры и влажнoсти вoздуха измеряются на высoте 2 м в тени вдали oт зданий и деревьев.
Скoрoсть ветра измеряется на высoте 10 м (на урoвне рoста челoвека скoрoсть ветра ниже в 1.5-2 раза). Если метеoстанция нахoдится в гoрoде или в лесу, тo скoрoсть ветра занижена на 2-4 м/с пo сравнению с oткрытым местoм. Скoрoсть ветра над акватoриями крупных рек и oзёр, а также на вершинах хoлмoв на 2-5 м/с выше, чем в oбычных услoвиях.
Атмoсфернoе давление в разных тoчках местнoсти мoжет значительнo oтличаться oт давления на метеoстанции, в зависимoсти oт услoвий рельефа (при пoдъёме на 10 м давление пoнижается примернo на 1 мм рт.ст.).